Location: Piolenc
(44.1794°N, 4.7641°E)
Time: 04:49:07
(UTC+00:00)

BREEZE M DEB (TANK) - Pass Details

Date: 27 January 2021
Orbit: 283 x 14500 km, 49.5° (Epoch: 27 February)

Event Time Altitude Azimuth Distance (km) Brightness Sun altitude
Exits shadow 06:09:23 12° 253° (WSW) 1,106 3.4 -10.0°
Maximum altitude 06:11:22 72° 337° (NNW) 447 1.7 -9.6°
Drops below altitude 10° 06:16:06 10° 64° (ENE) 2,562 6.5 -8.8°
Sets 06:20:37 0° 67° (ENE) 4,739 7.9 -8.1°
